IW0GZ Monterotondo IT current weather conditions

sailwx.info

Wind from 067 at 0 knots gusting 1

Air temperature 23.3° C
Dewpoint 17.5° C

Last reported at 2020-Aug-14 00:00 UTC.
Time now 2020-Aug-14 00:25 UTC

Location: N 42°04' E 012°37'.
View on Google Maps.

See reports from other nearby stations

  
Tides and Currents Weather Stations Pressure Air Temp Water Temp Dewpoint Dewpoint Depression Visibility Wind Speed Wind Dir Waves Ship Positions
date/time (UTC)wind fromknots sea level pressurealtimeterstation pressurevisibilityair tempwater tempwave heightnotes
2020-Aug-14 00:00 067 0 gusting 1 23.3
2020-Aug-13 23:10 120 0 gusting 0 25.0
2020-Aug-13 23:00 145 0 gusting 0 25.0
2020-Aug-13 22:50 236 25.6
2020-Aug-13 22:40 237 25.6
2020-Aug-13 22:30 237 25.6
2020-Aug-13 22:20 236 26.1
2020-Aug-13 22:10 236 0 gusting 0 26.1
2020-Aug-13 22:00 233 0 gusting 1 26.1
2020-Aug-13 21:50 230 26.1
2020-Aug-13 21:40 226 0 gusting 0 26.1
2020-Aug-13 21:30 230 0 gusting 1 26.1
2020-Aug-13 21:20 233 1 gusting 1 26.1
2020-Aug-13 21:10 239 1 gusting 2 26.1
2020-Aug-13 21:00 234 0 gusting 2 26.7
2020-Aug-13 20:50 226 1 gusting 3 26.7
2020-Aug-13 20:40 232 1 gusting 3 26.7
2020-Aug-13 20:30 232 1 gusting 2 26.7
2020-Aug-13 20:20 231 1 gusting 2 27.2
2020-Aug-13 20:10 233 1 gusting 2 27.2
2020-Aug-13 20:00 236 1 gusting 2 27.2
2020-Aug-13 19:50 236 1 gusting 2 27.2
2020-Aug-13 19:40 235 0 gusting 3 27.2
2020-Aug-13 19:30 241 0 gusting 2 27.8
2020-Aug-13 19:20 240 1 gusting 2 27.8
2020-Aug-13 19:10 242 2 gusting 5 28.3
2020-Aug-13 19:00 240 2 gusting 5 28.3
2020-Aug-13 18:50 237 1 gusting 4 28.9
2020-Aug-13 18:40 242 2 gusting 5 28.9
2020-Aug-13 18:30 238 3 gusting 6 29.4
2020-Aug-13 18:20 241 2 gusting 6 29.4
2020-Aug-13 18:10 240 2 gusting 5 30.0
2020-Aug-13 18:00 238 2 gusting 6 30.6
2020-Aug-13 17:50 238 3 gusting 6 30.6
2020-Aug-13 17:40 235 3 gusting 8 31.1
2020-Aug-13 17:30 233 2 gusting 7 31.7
2020-Aug-13 17:20 242 3 gusting 6 32.2
2020-Aug-13 17:10 243 4 gusting 8 32.2
2020-Aug-13 17:00 236 4 gusting 9 32.2
2020-Aug-13 16:50 234 4 gusting 10 32.8
2020-Aug-13 16:40 232 4 gusting 10 33.3
2020-Aug-13 16:30 230 4 gusting 8 33.3
2020-Aug-13 16:20 229 4 gusting 10 33.3
2020-Aug-13 16:10 234 6 gusting 10 33.3
2020-Aug-13 16:00 239 6 gusting 11 33.3
2020-Aug-13 15:50 240 6 gusting 11 33.9
2020-Aug-13 15:40 236 6 gusting 12 33.9
2020-Aug-13 15:30 240 6 gusting 13 33.9
2020-Aug-13 15:20 237 6 gusting 12 33.9
2020-Aug-13 15:10 233 6 gusting 14 33.9
2020-Aug-13 15:00 237 6 gusting 15 33.9
2020-Aug-13 14:50 224 5 gusting 13 34.4
2020-Aug-13 14:40 230 6 gusting 12 35.0
2020-Aug-13 14:30 230 6 gusting 13 35.0
2020-Aug-13 14:20 228 3 gusting 12 35.6
2020-Aug-13 14:10 191 2 gusting 8 36.1
2020-Aug-13 14:00 189 3 gusting 7 36.1
2020-Aug-13 13:50 229 4 gusting 9 35.6
2020-Aug-13 13:40 225 4 gusting 9 35.6
2020-Aug-13 13:30 243 2 gusting 8 35.6
2020-Aug-13 13:20 186 1 gusting 5 35.6
2020-Aug-13 13:10 138 2 gusting 5 35.6
2020-Aug-13 13:00 155 2 gusting 6 35.6
2020-Aug-13 12:50 223 3 gusting 6 35.6
2020-Aug-13 12:40 150 2 gusting 6 35.0
2020-Aug-13 12:30 141 2 gusting 6 35.6
2020-Aug-13 12:20 195 1 gusting 6 35.6
2020-Aug-13 12:10 252 1 gusting 5 35.0
2020-Aug-13 12:00 232 3 gusting 7 35.0
2020-Aug-13 11:50 165 2 gusting 8 34.4
2020-Aug-13 11:40 197 2 gusting 6 34.4
2020-Aug-13 11:30 125 2 gusting 6 34.4
2020-Aug-13 11:20 147 1 gusting 6 33.9
2020-Aug-13 11:10 057 1 gusting 4 33.9
2020-Aug-13 11:00 214 1 gusting 5 33.9
2020-Aug-13 10:50 271 1 gusting 5 33.3
2020-Aug-13 10:40 139 2 gusting 5 33.3
2020-Aug-13 10:30 240 1 gusting 6 32.8
2020-Aug-13 10:20 001 1 gusting 3 32.8
2020-Aug-13 10:10 269 2 gusting 5 32.2
2020-Aug-13 10:00 241 2 gusting 6 32.2
2020-Aug-13 09:50 247 3 gusting 6 31.7
2020-Aug-13 09:40 218 2 gusting 6 32.2
2020-Aug-13 09:30 197 1 gusting 4 31.7
2020-Aug-13 09:20 236 1 gusting 5 31.1
2020-Aug-13 09:10 229 1 gusting 4 30.6
2020-Aug-13 09:00 284 0 gusting 5 30.6
2020-Aug-13 08:50 060 0 gusting 3 30.0
2020-Aug-13 08:40 081 1 gusting 4 29.4
2020-Aug-13 08:30 077 1 gusting 3 28.9
2020-Aug-13 08:20 057 1 gusting 4 27.8
2020-Aug-13 08:10 057 2 gusting 4 27.8
2020-Aug-13 08:00 063 3 gusting 5 27.2
2020-Aug-13 07:50 033 3 gusting 5 26.7
2020-Aug-13 07:40 053 2 gusting 5 26.1
2020-Aug-13 07:30 057 1 gusting 3 26.1
2020-Aug-13 07:20 054 1 gusting 2 25.6
2020-Aug-13 07:10 043 1 gusting 3 25.0
2020-Aug-13 07:00 050 1 gusting 2 25.0
2020-Aug-13 06:50 044 0 gusting 3 24.4
2020-Aug-13 06:40 051 25.6
2020-Aug-13 06:30 056 0 gusting 1 24.4
2020-Aug-13 06:20 062 0 gusting 1 23.3
2020-Aug-13 06:10 059 23.9
2020-Aug-13 06:00 071 0 gusting 1 23.3
2020-Aug-13 05:50 053 23.3
2020-Aug-13 05:40 23.3
2020-Aug-13 05:30 032 0 gusting 0 22.8
2020-Aug-13 05:20 052 0 gusting 1 22.2
2020-Aug-13 05:10 053 1 gusting 2 21.7
2020-Aug-13 05:00 055 1 gusting 2 21.1
2020-Aug-13 04:50 053 1 gusting 2 20.6
2020-Aug-13 04:40 043 1 gusting 1 20.0
2020-Aug-13 04:30 053 1 gusting 1 20.0
2020-Aug-13 04:20 040 1 gusting 3 20.0
2020-Aug-13 04:10 031 0 gusting 3 20.6
2020-Aug-13 04:00 343 0 gusting 1 21.7
2020-Aug-13 03:50 270 0 gusting 0 21.7
2020-Aug-13 03:40 252 0 gusting 1 21.7
2020-Aug-13 03:30 252 22.2
2020-Aug-13 03:20 039 0 gusting 1 22.2
2020-Aug-13 03:10 040 22.2
2020-Aug-13 03:00 037 0 gusting 2 21.7
2020-Aug-13 02:50 027 21.7
2020-Aug-13 02:40 026 0 gusting 0 21.7
2020-Aug-13 02:30 028 0 gusting 1 21.7
2020-Aug-13 02:20 042 0 gusting 1 21.7
2020-Aug-13 02:10 050 0 gusting 1 21.7
2020-Aug-13 02:00 045 0 gusting 1 21.7
2020-Aug-13 01:50 062 0 gusting 1 21.7
2020-Aug-13 01:40 041 0 gusting 1 21.7
2020-Aug-13 01:30 028 0 gusting 2 21.7
2020-Aug-13 01:20 324 0 gusting 1 22.2
2020-Aug-13 01:10 245 22.2
2020-Aug-13 01:00 230 22.8
2020-Aug-13 00:50 113 23.9
2020-Aug-13 00:40 111 0 gusting 1 23.9
2020-Aug-13 00:30 238 0 gusting 2 23.9
2020-Aug-13 00:20 126 1 gusting 2 24.4
2020-Aug-13 00:10 112 2 gusting 4 24.4
2020-Aug-13 00:00 089 2 gusting 4 23.9
2020-Aug-12 23:50 092 1 gusting 4 23.9
2020-Aug-12 23:40 073 0 gusting 3 23.9
2020-Aug-12 23:30 106 0 gusting 1 24.4
2020-Aug-12 23:20 222 0 gusting 2 24.4
2020-Aug-12 23:10 227 0 gusting 2 24.4
2020-Aug-12 23:00 209 24.4
2020-Aug-12 22:50 242 0 gusting 1 25.0
2020-Aug-12 22:40 227 0 gusting 2 25.0
2020-Aug-12 22:30 226 0 gusting 2 25.6
2020-Aug-12 22:20 218 1 gusting 3 25.6
2020-Aug-12 22:10 229 0 gusting 2 25.6
2020-Aug-12 22:00 237 0 gusting 1 25.6
2020-Aug-12 21:50 241 0 gusting 2 25.6
2020-Aug-12 21:40 225 0 gusting 2 26.1
2020-Aug-12 21:30 221 0 gusting 2 26.1
2020-Aug-12 21:20 245 26.1
2020-Aug-12 21:10 141 0 gusting 2 26.1
2020-Aug-12 21:00 199 0 gusting 1 26.1
2020-Aug-12 20:50 234 0 gusting 4 26.7
2020-Aug-12 20:40 189 0 gusting 1 26.7
2020-Aug-12 20:30 204 0 gusting 3 26.7
2020-Aug-12 20:20 159 0 gusting 2 27.2
2020-Aug-12 20:10 210 0 gusting 4 27.2
2020-Aug-12 20:00 178 0 gusting 3 27.2
2020-Aug-12 19:50 212 1 gusting 4 27.2
2020-Aug-12 19:40 214 1 gusting 6 27.8
2020-Aug-12 19:30 213 1 gusting 5 27.8
2020-Aug-12 19:20 212 2 gusting 7 27.8
2020-Aug-12 19:10 184 1 gusting 4 28.3
2020-Aug-12 19:00 188 0 gusting 5 28.3
2020-Aug-12 18:50 150 0 gusting 3 28.3
2020-Aug-12 18:40 191 2 gusting 6 28.3
2020-Aug-12 18:30 210 2 gusting 6 28.9
2020-Aug-12 18:20 208 1 gusting 5 28.9
2020-Aug-12 18:10 207 2 gusting 6 29.4
2020-Aug-12 18:00 217 2 gusting 6 29.4
2020-Aug-12 17:50 211 1 gusting 6 30.6
2020-Aug-12 17:40 204 2 gusting 6 31.1
2020-Aug-12 17:30 214 1 gusting 7 31.1
2020-Aug-12 17:20 210 3 gusting 9 31.7
2020-Aug-12 17:10 212 3 gusting 8 31.7
2020-Aug-12 17:00 216 2 gusting 7 32.2
2020-Aug-12 16:50 208 3 gusting 7 32.2
2020-Aug-12 16:40 218 3 gusting 7 32.2
2020-Aug-12 16:30 219 3 gusting 9 32.2
2020-Aug-12 16:20 225 4 gusting 7 32.8
2020-Aug-12 16:10 224 6 gusting 11 32.2
2020-Aug-12 16:00 228 6 gusting 14 32.8
2020-Aug-12 15:50 233 6 gusting 13 33.3
2020-Aug-12 15:40 236 5 gusting 13 33.9
2020-Aug-12 15:30 224 4 gusting 11 34.4
2020-Aug-12 15:20 228 4 gusting 13 34.4
2020-Aug-12 15:10 231 4 gusting 12 34.4
2020-Aug-12 15:00 225 4 gusting 11 34.4
2020-Aug-12 14:50 235 5 gusting 9 35.0
2020-Aug-12 14:40 236 5 gusting 12 35.0
2020-Aug-12 14:30 217 3 gusting 8 35.6
2020-Aug-12 14:20 232 3 gusting 7 35.0
2020-Aug-12 14:10 210 3 gusting 8 35.6
2020-Aug-12 14:00 216 3 gusting 9 35.0
2020-Aug-12 13:50 227 3 gusting 7 35.6
2020-Aug-12 13:40 243 3 gusting 7 35.0
2020-Aug-12 13:30 214 3 gusting 6 35.0
2020-Aug-12 13:20 220 3 gusting 8 35.0
2020-Aug-12 13:10 227 3 gusting 6 35.0
2020-Aug-12 13:00 229 3 gusting 7 34.4
2020-Aug-12 12:50 219 3 gusting 9 34.4
2020-Aug-12 12:40 216 3 gusting 7 34.4
2020-Aug-12 12:30 237 3 gusting 9 33.9
2020-Aug-12 12:20 231 5 gusting 10 33.9
2020-Aug-12 12:10 241 4 gusting 9 33.9
2020-Aug-12 12:00 244 5 gusting 9 33.9
2020-Aug-12 11:50 244 6 gusting 11 33.3
2020-Aug-12 11:40 235 5 gusting 10 33.3
2020-Aug-12 11:30 242 3 gusting 10 33.3
2020-Aug-12 11:20 236 5 gusting 9 33.3
2020-Aug-12 11:10 243 3 gusting 10 33.3
2020-Aug-12 11:00 231 2 gusting 6 33.3
2020-Aug-12 10:50 233 3 gusting 7 32.8
2020-Aug-12 10:40 255 2 gusting 8 32.8
2020-Aug-12 10:30 256 4 gusting 6 32.2
2020-Aug-12 10:20 249 3 gusting 12 32.2
2020-Aug-12 10:10 239 2 gusting 6 32.2
2020-Aug-12 10:00 172 1 gusting 6 32.8
2020-Aug-12 09:50 211 2 gusting 7 32.2
2020-Aug-12 09:40 201 1 gusting 6 32.2
2020-Aug-12 09:30 239 2 gusting 4 31.1
2020-Aug-12 09:20 233 1 gusting 5 30.6
2020-Aug-12 09:10 199 1 gusting 5 31.1
2020-Aug-12 09:00 210 1 gusting 5 30.6
2020-Aug-12 08:50 232 1 gusting 4 30.0
2020-Aug-12 08:40 217 1 gusting 4 30.0
2020-Aug-12 08:30 121 1 gusting 4 29.4
2020-Aug-12 08:20 102 1 gusting 5 28.9
2020-Aug-12 08:10 086 0 gusting 4 27.8
2020-Aug-12 08:00 106 0 gusting 2 27.8
2020-Aug-12 07:50 214 27.2
2020-Aug-12 07:40 258 0 gusting 1 26.7
2020-Aug-12 07:30 241 0 gusting 3 25.6
2020-Aug-12 07:20 248 0 gusting 1 25.0
2020-Aug-12 07:10 246 1 gusting 3 24.4
2020-Aug-12 07:00 303 1 gusting 2 24.4
2020-Aug-12 06:50 037 2 gusting 3 23.9
2020-Aug-12 06:40 035 3 gusting 6 22.8
2020-Aug-12 06:30 034 3 gusting 6 22.8
2020-Aug-12 06:20 048 3 gusting 5 22.2
2020-Aug-12 06:10 043 2 gusting 5 22.2
2020-Aug-12 06:00 053 2 gusting 3 21.7
2020-Aug-12 05:50 041 2 gusting 3 21.7
2020-Aug-12 05:40 056 1 gusting 3 21.7
2020-Aug-12 05:30 021 1 gusting 2 21.7
2020-Aug-12 05:20 037 1 gusting 4 21.1
2020-Aug-12 05:10 044 1 gusting 2 21.1
2020-Aug-12 05:00 353 0 gusting 2 21.1
2020-Aug-12 04:50 004 0 gusting 1 20.6
2020-Aug-12 04:40 002 0 gusting 1 20.0
2020-Aug-12 04:30 020 1 gusting 2 20.6
2020-Aug-12 04:20 351 0 gusting 2 20.6
2020-Aug-12 04:10 004 0 gusting 2 20.6
2020-Aug-12 04:00 343 21.7
2020-Aug-12 03:50 343 21.7
2020-Aug-12 03:40 002 21.7
2020-Aug-12 03:30 044 21.7
2020-Aug-12 03:20 044 21.7
2020-Aug-12 03:10 032 21.7
2020-Aug-12 03:00 21.7
2020-Aug-12 02:50 033 0 gusting 0 21.7
2020-Aug-12 02:40 033 22.2
2020-Aug-12 02:30 033 0 gusting 0 21.7
2020-Aug-12 02:20 036 0 gusting 1 21.7
2020-Aug-12 02:10 044 21.7
2020-Aug-12 02:00 21.7
2020-Aug-12 01:50 034 1 gusting 2 21.7
2020-Aug-12 01:40 053 0 gusting 1 21.7
2020-Aug-12 01:30 269 22.2
2020-Aug-12 01:20 250 0 gusting 1 22.8
2020-Aug-12 01:10 255 1 gusting 2 22.8
2020-Aug-12 01:00 235 0 gusting 1 23.3
2020-Aug-12 00:50 237 0 gusting 1 22.8
2020-Aug-12 00:40 267 0 gusting 2 23.3
2020-Aug-12 00:30 241 1 gusting 2 23.9
2020-Aug-12 00:20 242 0 gusting 1 23.9
2020-Aug-12 00:10 240 0 gusting 1 23.9
2020-Aug-12 00:00 251 0 gusting 0 23.9